sat.trackr.live / text

‹ back to catalog

STARLINK-3545

NORAD 51855 · 2022-022D

PAYLOAD ACTIVE UNKNOWN

§ Identity

Operator
Country
US
Launch date
2022-03-03
Launch site
AFETR
Launch vehicle
Mass (kg)
RCS (m²)

Purposes: comms

External: N2YO · Heavens-Above · Gunter

§ Orbital elements

Epoch: 2026-05-25T00:14:51.692064Z

Period
95.43 min
Inclination
53.2136°
Eccentricity
0.0001651
Mean motion
15.08880419 rev/d
Perigee alt
538.5 km
Apogee alt
540.8 km
Semi-major
6,917.8 km
B*
3.8421e-4
RAAN
36.4221°
Arg perigee
74.8797°
Mean anomaly
285.2378°
Rev number
23,449

§ Raw data

STARLINK-35451 51855U 22022D   26145.01032051  .00005839  00000+0  38421-3 0  99972 51855  53.2136  36.4221 0001651  74.8797 285.2378 15.08880419234490

JSON: /api/v1/satellites/51855 · /tle

For live sub-satellite position, see the globe view (requires WebGL).

§ Visibility from observer

Set your observer location to see the next 7 days of passes ≥ 10°. The values pass through the URL so the page stays shareable.

No JS? Fill the form by hand. The geolocation button needs JavaScript.